contact:dominique.lefevre@mio.osupytheas.fr, maurice.libes@osupytheas.fr, didier.mallarino@osupytheas.fr
Project:EMSO http://www.emso-fr.org/EMSO-France
Depth: 2436.0 m
Title:EMSO Ligure Ouest : Data MII capteur AQUADOPP
Date,Latitude,Longitude,X_East,Y_North,Z_Up,Amplitude_X,Amplitude_Y,Amplitude_Z,Batterie,SoundSpeed,Heading,Pitch,Roll,Pressure,TIS,Speed,Direction
, degrees North, degrees East, m.s-1, m.s-1,m.s-1, 1, 1, 1, Volt, m.s-1, degree, degree, degree, dbar, degree_C, m.s-1, degree
2020-07-30T00:04:03,42.805,6.029,0.031,-0.014,-0.035,105.0,106.0,104.0,13.4,1505.2,326.3,-0.7,1.8,2470.448,13.3,0.034,114.3
2020-07-30T00:07:03,42.805,6.029,0.023,-0.035,0.022,106.0,106.0,103.0,13.4,1505.3,326.2,-0.7,1.9,2470.391,13.31,0.041,146.7
2020-07-30T00:10:03,42.805,6.029,0.006,-0.034,-0.033,106.0,106.0,103.0,13.4,1505.3,327.0,-0.7,1.8,2470.403,13.32,0.034,170.0
2020-07-30T00:13:03,42.805,6.029,0.017,-0.041,-0.036,105.0,106.0,102.0,13.4,1505.3,324.9,-0.7,1.8,2470.416,13.32,0.044,157.5
2020-07-30T00:16:03,42.805,6.029,0.03,-0.034,0.011,105.0,106.0,103.0,13.4,1505.3,326.7,-0.7,1.8,2470.392,13.32,0.045,138.6
2020-07-30T00:19:03,42.805,6.029,0.008,-0.042,-0.008,106.0,107.0,104.0,13.4,1505.3,325.0,-0.7,1.9,2470.395,13.32,0.042,169.2
2020-07-30T00:22:03,42.805,6.029,0.006,-0.037,-0.006,106.0,107.0,103.0,13.4,1505.3,324.7,-0.7,1.8,2470.423,13.32,0.037,170.8
2020-07-30T00:25:03,42.805,6.029,0.012,-0.031,0.001,106.0,107.0,103.0,13.3,1505.3,326.1,-0.7,1.8,2470.421,13.32,0.033,158.8
2020-07-30T00:28:03,42.805,6.029,0.022,-0.064,-0.013,106.0,106.0,103.0,13.4,1505.3,326.7,-0.7,1.8,2470.401,13.32,0.067,161.0
2020-07-30T00:31:03,42.805,6.029,0.02,-0.052,-0.032,106.0,106.0,103.0,13.4,1505.3,328.3,-0.7,1.8,2470.436,13.32,0.055,159.0
2020-07-30T00:34:03,42.805,6.029,-0.005,-0.062,-0.03,107.0,106.0,103.0,13.4,1505.3,323.8,-0.7,1.8,2470.409,13.32,0.062,184.6
2020-07-30T00:37:03,42.805,6.029,0.014,-0.013,0.0,106.0,107.0,103.0,13.4,1505.3,323.3,-0.7,1.8,2470.411,13.32,0.019,132.9
2020-07-30T00:40:03,42.805,6.029,0.009,-0.025,0.004,106.0,107.0,103.0,13.4,1505.3,324.8,-0.7,1.9,2470.384,13.32,0.026,160.2
2020-07-30T00:43:03,42.805,6.029,0.024,-0.053,-0.029,105.0,106.0,103.0,13.4,1505.3,325.7,-0.7,1.8,2470.401,13.32,0.058,155.6
2020-07-30T00:46:03,42.805,6.029,0.015,-0.035,0.01,106.0,107.0,103.0,13.4,1505.3,326.4,-0.7,1.8,2470.396,13.32,0.038,156.8
2020-07-30T00:49:03,42.805,6.029,0.028,-0.048,-0.006,107.0,107.0,103.0,13.4,1505.3,328.0,-0.7,1.8,2470.337,13.32,0.055,149.7
2020-07-30T00:52:03,42.805,6.029,0.017,-0.025,-0.007,105.0,106.0,102.0,13.4,1505.3,327.7,-0.7,1.8,2470.378,13.32,0.03,145.8
2020-07-30T00:55:03,42.805,6.029,0.014,-0.045,-0.013,107.0,107.0,102.0,13.4,1505.3,326.3,-0.7,1.8,2470.414,13.32,0.047,162.7
2020-07-30T00:58:03,42.805,6.029,0.0,-0.029,-0.002,107.0,106.0,102.0,13.4,1505.3,324.1,-0.7,1.8,2470.374,13.32,0.028,180.0
2020-07-30T01:04:03,42.805,6.029,0.021,-0.05,-0.02,108.0,108.0,105.0,13.4,1505.2,325.0,-0.7,1.8,2470.436,13.3,0.054,157.2
2020-07-30T01:07:02,42.805,6.029,0.019,-0.035,-0.028,105.0,106.0,104.0,13.4,1505.3,326.5,-0.7,1.9,2470.41,13.31,0.039,151.5
2020-07-30T01:10:03,42.805,6.029,0.014,-0.017,-0.016,107.0,106.0,104.0,13.4,1505.3,326.5,-0.7,1.8,2470.369,13.32,0.022,140.5
2020-07-30T01:13:03,42.805,6.029,0.011,-0.043,-0.011,107.0,107.0,103.0,13.4,1505.3,325.7,-0.7,1.8,2470.418,13.32,0.044,165.7
2020-07-30T01:16:03,42.805,6.029,0.017,-0.055,-0.032,107.0,106.0,103.0,13.4,1505.3,325.0,-0.7,1.8,2470.444,13.32,0.057,162.8
2020-07-30T01:19:03,42.805,6.029,0.023,-0.063,-0.035,106.0,107.0,102.0,13.4,1505.3,327.4,-0.7,1.9,2470.44,13.32,0.067,159.9
2020-07-30T01:22:03,42.805,6.029,0.01,-0.052,0.0,106.0,107.0,103.0,13.3,1505.3,328.3,-0.7,1.8,2470.45,13.32,0.052,169.1
2020-07-30T01:25:03,42.805,6.029,0.005,-0.04,-0.002,107.0,107.0,103.0,13.4,1505.3,323.4,-0.7,1.8,2470.399,13.32,0.04,172.9
2020-07-30T01:28:03,42.805,6.029,0.014,-0.037,-0.004,107.0,107.0,104.0,13.4,1505.3,323.1,-0.7,1.9,2470.404,13.32,0.039,159.3
2020-07-30T01:31:03,42.805,6.029,0.01,-0.045,-0.04,108.0,107.0,103.0,13.4,1505.3,323.2,-0.7,1.8,2470.4,13.32,0.046,167.5
2020-07-30T01:34:03,42.805,6.029,0.018,-0.028,-0.033,107.0,107.0,102.0,13.4,1505.3,324.6,-0.7,1.9,2470.414,13.32,0.033,147.3
2020-07-30T01:37:03,42.805,6.029,0.027,-0.04,0.008,107.0,106.0,103.0,13.3,1505.3,325.4,-0.7,1.8,2470.371,13.32,0.048,146.0
2020-07-30T01:40:03,42.805,6.029,-0.007,-0.063,-0.023,106.0,107.0,103.0,13.4,1505.3,325.5,-0.7,1.8,2470.404,13.32,0.063,186.3
2020-07-30T01:43:03,42.805,6.029,0.002,-0.015,-0.023,107.0,106.0,102.0,13.4,1505.3,326.4,-0.8,1.8,2470.407,13.32,0.015,172.4
2020-07-30T01:46:03,42.805,6.029,0.01,-0.056,-0.019,106.0,106.0,104.0,13.3,1505.3,323.4,-0.7,1.8,2470.451,13.32,0.056,169.9
2020-07-30T01:49:03,42.805,6.029,-0.007,-0.038,0.029,108.0,107.0,104.0,13.4,1505.3,326.8,-0.7,1.8,2470.417,13.32,0.038,190.4
2020-07-30T01:52:03,42.805,6.029,0.022,-0.045,-0.018,106.0,106.0,105.0,13.4,1505.3,325.1,-0.7,1.8,2470.449,13.32,0.05,153.9
2020-07-30T01:55:03,42.805,6.029,0.006,-0.046,0.017,107.0,107.0,103.0,13.4,1505.3,325.4,-0.7,1.8,2470.393,13.32,0.046,172.6
2020-07-30T01:58:03,42.805,6.029,0.013,-0.03,0.011,106.0,108.0,104.0,13.4,1505.3,324.5,-0.7,1.8,2470.433,13.32,0.032,156.6
2020-07-30T02:04:03,42.805,6.029,0.015,-0.028,-0.004,108.0,107.0,103.0,13.4,1505.2,327.4,-0.7,1.8,2470.481,13.3,0.031,151.8
2020-07-30T02:07:03,42.805,6.029,0.009,-0.041,-0.018,107.0,108.0,104.0,13.3,1505.3,324.1,-0.7,1.8,2470.43,13.31,0.041,167.6
2020-07-30T02:10:03,42.805,6.029,0.033,-0.05,0.019,108.0,107.0,105.0,13.4,1505.3,324.3,-0.7,1.8,2470.405,13.32,0.059,146.6
2020-07-30T02:13:03,42.805,6.029,0.008,-0.046,-0.004,107.0,109.0,103.0,13.3,1505.3,325.6,-0.7,1.8,2470.474,13.32,0.046,170.1
2020-07-30T02:16:03,42.805,6.029,-0.007,-0.036,-0.024,107.0,108.0,104.0,13.4,1505.3,327.8,-0.7,1.8,2470.415,13.32,0.036,191.0
2020-07-30T02:19:03,42.805,6.029,0.024,-0.053,0.004,107.0,108.0,105.0,13.4,1505.3,327.7,-0.7,1.8,2470.43,13.32,0.058,155.6
2020-07-30T02:22:03,42.805,6.029,0.013,-0.075,-0.004,108.0,107.0,105.0,13.3,1505.3,327.7,-0.7,1.8,2470.385,13.32,0.076,170.2
2020-07-30T02:25:03,42.805,6.029,0.015,-0.045,-0.016,108.0,107.0,105.0,13.4,1505.3,324.5,-0.7,1.8,2470.465,13.32,0.047,161.6
2020-07-30T02:28:03,42.805,6.029,0.01,-0.021,-0.006,108.0,108.0,104.0,13.3,1505.3,323.6,-0.7,1.8,2470.427,13.32,0.023,154.5
2020-07-30T02:31:03,42.805,6.029,0.001,-0.033,-0.024,108.0,109.0,103.0,13.4,1505.3,325.0,-0.7,1.8,2470.477,13.32,0.033,178.3
2020-07-30T02:34:03,42.805,6.029,0.021,-0.03,-0.012,107.0,109.0,103.0,13.4,1505.3,327.4,-0.7,1.8,2470.467,13.32,0.036,145.0
2020-07-30T02:37:03,42.805,6.029,0.032,-0.03,0.004,108.0,108.0,104.0,13.3,1505.3,328.5,-0.7,1.8,2470.469,13.32,0.043,133.1
2020-07-30T02:40:03,42.805,6.029,0.021,-0.033,-0.035,107.0,107.0,103.0,13.4,1505.3,327.2,-0.7,1.8,2470.454,13.32,0.039,147.5
2020-07-30T02:43:03,42.805,6.029,0.005,-0.035,-0.037,107.0,108.0,105.0,13.3,1505.3,325.7,-0.7,1.8,2470.437,13.32,0.035,171.9
2020-07-30T02:46:03,42.805,6.029,0.0,-0.044,0.003,108.0,107.0,104.0,13.4,1505.3,326.7,-0.7,1.8,2470.402,13.32,0.044,180.0
2020-07-30T02:49:03,42.805,6.029,0.02,-0.052,-0.043,107.0,108.0,105.0,13.4,1505.3,326.0,-0.7,1.8,2470.429,13.32,0.055,159.0
2020-07-30T02:52:03,42.805,6.029,0.022,-0.031,-0.038,109.0,108.0,105.0,13.4,1505.3,324.7,-0.7,1.8,2470.415,13.32,0.038,144.6
2020-07-30T02:55:03,42.805,6.029,0.015,-0.022,-0.006,108.0,107.0,104.0,13.4,1505.3,326.7,-0.7,1.8,2470.401,13.32,0.026,145.7
2020-07-30T02:58:03,42.805,6.029,0.029,-0.048,0.016,108.0,109.0,104.0,13.3,1505.3,325.9,-0.7,1.8,2470.438,13.32,0.056,148.9
2020-07-30T03:04:03,42.805,6.029,0.018,-0.041,0.022,109.0,108.0,104.0,13.4,1505.2,324.9,-0.7,1.8,2470.455,13.3,0.044,156.3
2020-07-30T03:07:03,42.805,6.029,0.018,-0.042,-0.016,110.0,110.0,104.0,13.4,1505.3,324.2,-0.7,1.8,2470.462,13.31,0.045,156.8
2020-07-30T03:10:03,42.805,6.029,0.02,-0.024,-0.049,107.0,109.0,104.0,13.4,1505.3,324.1,-0.7,1.8,2470.484,13.32,0.031,140.2
2020-07-30T03:13:03,42.805,6.029,0.012,-0.048,-0.001,107.0,109.0,103.0,13.4,1505.3,324.9,-0.7,1.8,2470.481,13.32,0.049,166.0
2020-07-30T03:16:03,42.805,6.029,-0.007,-0.037,0.004,108.0,108.0,104.0,13.4,1505.3,328.2,-0.7,1.8,2470.463,13.32,0.037,190.7
2020-07-30T03:19:03,42.805,6.029,-0.005,-0.036,0.005,109.0,107.0,105.0,13.4,1505.3,323.7,-0.7,1.8,2470.423,13.32,0.036,187.9
2020-07-30T03:22:03,42.805,6.029,0.01,-0.039,-0.036,108.0,108.0,103.0,13.4,1505.3,323.3,-0.7,1.8,2470.431,13.32,0.04,165.6
2020-07-30T03:25:03,42.805,6.029,0.007,-0.028,-0.002,107.0,109.0,105.0,13.4,1505.3,323.8,-0.7,1.8,2470.474,13.32,0.028,166.0
2020-07-30T03:28:03,42.805,6.029,0.026,-0.051,-0.025,108.0,109.0,104.0,13.4,1505.3,327.1,-0.7,1.8,2470.449,13.32,0.057,153.0
2020-07-30T03:31:03,42.805,6.029,0.009,-0.037,-0.02,107.0,108.0,104.0,13.3,1505.3,325.2,-0.7,1.8,2470.446,13.32,0.038,166.3
2020-07-30T03:34:03,42.805,6.029,0.017,-0.048,-0.007,109.0,108.0,105.0,13.3,1505.3,326.5,-0.7,1.8,2470.463,13.32,0.05,160.5
2020-07-30T03:37:03,42.805,6.029,-0.001,-0.046,-0.015,107.0,108.0,104.0,13.3,1505.3,324.6,-0.7,1.8,2470.41,13.32,0.046,181.2
2020-07-30T03:40:03,42.805,6.029,0.014,-0.041,-0.02,109.0,109.0,105.0,13.4,1505.3,323.3,-0.7,1.8,2470.473,13.32,0.043,161.1
2020-07-30T03:43:03,42.805,6.029,0.006,-0.039,-0.018,109.0,109.0,105.0,13.4,1505.3,324.6,-0.7,1.8,2470.471,13.32,0.039,171.3
2020-07-30T03:46:03,42.805,6.029,0.019,-0.064,-0.001,109.0,109.0,105.0,13.4,1505.3,327.4,-0.7,1.8,2470.439,13.32,0.066,163.5
2020-07-30T03:52:03,42.805,6.029,0.024,-0.039,-0.037,108.0,109.0,104.0,13.4,1505.2,325.1,-0.7,1.9,2470.505,13.3,0.045,148.4
2020-07-30T03:55:03,42.805,6.029,0.0,-0.049,-0.01,109.0,108.0,105.0,13.4,1505.3,324.4,-0.7,1.9,2470.447,13.31,0.049,180.0
2020-07-30T03:58:03,42.805,6.029,-0.001,-0.054,-0.01,108.0,108.0,104.0,13.4,1505.3,327.3,-0.7,1.8,2470.44,13.32,0.054,181.1
2020-07-30T04:04:03,42.805,6.029,-0.005,-0.01,0.005,108.0,109.0,105.0,13.4,1505.2,327.9,-0.7,1.8,2470.483,13.3,0.011,206.6
2020-07-30T04:07:03,42.805,6.029,-0.026,-0.058,-0.017,108.0,109.0,104.0,13.4,1505.3,328.1,-0.7,1.8,2470.465,13.31,0.063,204.1
2020-07-30T04:10:03,42.805,6.029,-0.002,-0.047,0.005,108.0,108.0,104.0,13.4,1505.3,326.3,-0.7,1.8,2470.492,13.31,0.047,182.4
2020-07-30T04:13:03,42.805,6.029,0.025,-0.029,-0.006,110.0,108.0,104.0,13.3,1505.3,326.6,-0.7,1.8,2470.449,13.32,0.038,139.2
2020-07-30T04:16:03,42.805,6.029,0.013,-0.017,-0.022,109.0,109.0,104.0,13.4,1505.3,325.4,-0.7,1.8,2470.461,13.32,0.021,142.6
2020-07-30T04:19:03,42.805,6.029,0.021,-0.016,-0.028,108.0,108.0,105.0,13.4,1505.3,324.4,-0.7,1.8,2470.456,13.32,0.026,127.3
2020-07-30T04:22:03,42.805,6.029,-0.005,-0.038,-0.031,109.0,108.0,105.0,13.4,1505.3,326.4,-0.7,1.9,2470.454,13.32,0.038,187.5
2020-07-30T04:25:03,42.805,6.029,0.006,-0.039,-0.021,109.0,109.0,103.0,13.4,1505.3,323.1,-0.7,1.8,2470.417,13.32,0.039,171.3
2020-07-30T04:28:03,42.805,6.029,0.015,-0.035,-0.013,109.0,109.0,105.0,13.4,1505.3,324.8,-0.7,1.8,2470.444,13.32,0.038,156.8
2020-07-30T04:31:03,42.805,6.029,0.001,-0.022,-0.012,107.0,108.0,105.0,13.4,1505.3,325.4,-0.7,1.8,2470.462,13.32,0.022,177.4
2020-07-30T04:37:03,42.805,6.029,0.014,-0.036,-0.047,109.0,110.0,105.0,13.3,1505.2,325.9,-0.7,1.8,2470.523,13.3,0.038,158.8
2020-07-30T04:40:03,42.805,6.029,0.02,-0.073,-0.001,109.0,108.0,105.0,13.4,1505.3,326.9,-0.7,1.8,2470.428,13.31,0.075,164.7
2020-07-30T04:43:03,42.805,6.029,0.011,-0.046,-0.01,109.0,108.0,104.0,13.3,1505.3,324.9,-0.7,1.9,2470.431,13.32,0.047,166.6
2020-07-30T04:46:03,42.805,6.029,0.0,-0.035,-0.006,110.0,107.0,106.0,13.4,1505.3,326.5,-0.7,1.9,2470.441,13.32,0.035,180.0
2020-07-30T04:49:03,42.805,6.029,0.005,-0.024,0.023,109.0,109.0,104.0,13.4,1505.3,323.3,-0.7,1.8,2470.423,13.32,0.024,168.2
2020-07-30T04:52:03,42.805,6.029,0.027,-0.041,-0.024,109.0,109.0,105.0,13.3,1505.3,328.6,-0.7,1.9,2470.442,13.32,0.049,146.6
2020-07-30T04:55:03,42.805,6.029,0.002,-0.033,-0.005,110.0,108.0,106.0,13.4,1505.3,325.5,-0.7,1.8,2470.474,13.32,0.033,176.5
2020-07-30T04:58:03,42.805,6.029,-0.012,-0.036,-0.014,109.0,109.0,105.0,13.4,1505.3,326.6,-0.6,1.9,2470.468,13.32,0.037,198.4
2020-07-30T05:04:03,42.805,6.029,0.002,-0.042,0.006,110.0,109.0,104.0,13.3,1505.2,323.5,-0.7,1.8,2470.491,13.3,0.042,177.3
2020-07-30T05:07:03,42.805,6.029,0.008,-0.051,-0.036,110.0,109.0,103.0,13.4,1505.3,328.1,-0.7,1.8,2470.438,13.31,0.051,171.1
2020-07-30T05:10:03,42.805,6.029,-0.013,-0.056,-0.028,111.0,109.0,104.0,13.3,1505.3,327.0,-0.7,1.9,2470.479,13.32,0.057,193.1
2020-07-30T05:13:03,42.805,6.029,0.027,-0.042,0.034,109.0,110.0,105.0,13.4,1505.3,325.8,-0.7,1.8,2470.435,13.32,0.049,147.3
2020-07-30T05:16:03,42.805,6.029,-0.003,-0.039,0.021,109.0,109.0,105.0,13.4,1505.3,326.1,-0.7,1.8,2470.464,13.32,0.039,184.4
2020-07-30T05:19:03,42.805,6.029,-0.018,-0.038,-0.003,109.0,109.0,106.0,13.3,1505.3,327.4,-0.7,1.9,2470.436,13.32,0.042,205.3
2020-07-30T05:22:03,42.805,6.029,0.002,-0.043,-0.03,109.0,109.0,105.0,13.4,1505.3,326.5,-0.7,1.8,2470.391,13.32,0.043,177.3
2020-07-30T05:25:03,42.805,6.029,-0.021,-0.034,0.008,109.0,110.0,106.0,13.4,1505.3,326.2,-0.7,1.8,2470.45,13.32,0.039,211.7
2020-07-30T05:28:03,42.805,6.029,-0.002,-0.046,0.006,110.0,110.0,106.0,13.4,1505.3,323.2,-0.7,1.8,2470.399,13.32,0.046,182.5
2020-07-30T05:31:03,42.805,6.029,-0.032,-0.06,-0.04,109.0,109.0,105.0,13.3,1505.3,326.2,-0.7,1.8,2470.433,13.32,0.067,208.1
2020-07-30T05:34:03,42.805,6.029,-0.017,-0.039,0.0,110.0,109.0,106.0,13.3,1505.3,324.6,-0.7,1.8,2470.427,13.32,0.042,203.5
2020-07-30T05:37:03,42.805,6.029,-0.011,-0.03,-0.015,110.0,109.0,105.0,13.3,1505.3,327.2,-0.7,1.8,2470.445,13.32,0.031,200.1
2020-07-30T05:40:03,42.805,6.029,-0.012,-0.015,-0.01,110.0,110.0,106.0,13.4,1505.3,323.6,-0.7,1.8,2470.422,13.32,0.019,218.7
2020-07-30T05:43:03,42.805,6.029,-0.008,-0.044,0.011,110.0,109.0,106.0,13.4,1505.3,325.2,-0.7,1.8,2470.443,13.32,0.044,190.3
2020-07-30T05:46:03,42.805,6.029,0.0,-0.04,-0.016,111.0,110.0,107.0,13.4,1505.3,326.0,-0.7,1.8,2470.4,13.32,0.04,180.0
2020-07-30T05:49:03,42.805,6.029,-0.001,-0.057,-0.016,110.0,109.0,106.0,13.4,1505.3,327.9,-0.7,1.9,2470.383,13.32,0.057,181.0
2020-07-30T05:52:03,42.805,6.029,0.002,-0.034,-0.022,110.0,111.0,106.0,13.4,1505.3,324.7,-0.7,1.8,2470.41,13.32,0.034,176.6
2020-07-30T05:55:03,42.805,6.029,-0.002,-0.037,0.019,109.0,110.0,106.0,13.4,1505.3,323.1,-0.7,1.8,2470.391,13.32,0.037,183.1
2020-07-30T05:58:03,42.805,6.029,-0.003,-0.054,0.006,111.0,110.0,106.0,13.4,1505.3,323.1,-0.7,1.8,2470.417,13.32,0.054,183.2
2020-07-30T06:04:03,42.805,6.029,-0.014,-0.054,-0.039,110.0,110.0,105.0,13.4,1505.2,325.1,-0.7,1.8,2470.41,13.3,0.055,194.5
2020-07-30T06:07:03,42.805,6.029,0.004,-0.037,-0.019,110.0,109.0,105.0,13.4,1505.3,323.3,-0.7,1.9,2470.411,13.31,0.037,173.8
2020-07-30T06:10:03,42.805,6.029,-0.023,-0.045,-0.005,110.0,109.0,106.0,13.4,1505.3,326.1,-0.7,1.8,2470.42,13.32,0.05,207.1
2020-07-30T06:13:03,42.805,6.029,0.0,-0.028,-0.04,111.0,110.0,106.0,13.3,1505.3,328.0,-0.7,1.8,2470.368,13.32,0.028,180.0
2020-07-30T06:16:03,42.805,6.029,-0.003,-0.033,-0.043,111.0,109.0,106.0,13.4,1505.3,323.8,-0.7,1.8,2470.419,13.32,0.033,185.2
2020-07-30T06:19:03,42.805,6.029,-0.011,-0.031,-0.038,110.0,110.0,105.0,13.4,1505.3,326.6,-0.7,1.8,2470.396,13.32,0.032,199.5
2020-07-30T06:22:03,42.805,6.029,-0.001,-0.043,-0.048,110.0,110.0,105.0,13.3,1505.3,323.3,-0.7,1.8,2470.384,13.32,0.043,181.3
2020-07-30T06:25:03,42.805,6.029,-0.011,-0.029,-0.042,109.0,109.0,106.0,13.4,1505.3,324.2,-0.7,1.8,2470.392,13.32,0.031,200.8
2020-07-30T06:28:03,42.805,6.029,-0.017,-0.044,-0.012,110.0,109.0,104.0,13.4,1505.3,326.3,-0.7,1.8,2470.364,13.32,0.047,201.1
2020-07-30T06:31:03,42.805,6.029,-0.017,-0.034,-0.025,109.0,109.0,105.0,13.3,1505.3,325.1,-0.7,1.8,2470.424,13.32,0.038,206.6
2020-07-30T06:34:03,42.805,6.029,-0.017,-0.037,-0.014,108.0,110.0,105.0,13.4,1505.3,325.3,-0.7,1.8,2470.381,13.32,0.04,204.7
2020-07-30T06:37:03,42.805,6.029,-0.026,-0.03,0.005,111.0,110.0,105.0,13.3,1505.3,325.6,-0.7,1.8,2470.373,13.32,0.039,220.9
2020-07-30T06:40:03,42.805,6.029,-0.006,-0.029,-0.015,111.0,108.0,106.0,13.3,1505.3,328.5,-0.7,1.9,2470.387,13.32,0.029,191.7
2020-07-30T06:43:03,42.805,6.029,-0.045,-0.031,-0.01,110.0,109.0,104.0,13.3,1505.3,326.0,-0.7,1.8,2470.343,13.33,0.054,235.4
2020-07-30T06:46:03,42.805,6.029,-0.039,-0.029,0.005,110.0,108.0,105.0,13.4,1505.3,327.5,-0.7,1.8,2470.341,13.33,0.048,233.4
2020-07-30T06:49:03,42.805,6.029,-0.024,-0.025,-0.008,110.0,108.0,107.0,13.4,1505.3,324.2,-0.7,1.9,2470.371,13.33,0.034,223.8
2020-07-30T06:52:03,42.805,6.029,-0.024,-0.027,-0.018,109.0,110.0,106.0,13.4,1505.3,324.7,-0.7,1.9,2470.363,13.33,0.036,221.6
2020-07-30T06:55:03,42.805,6.029,-0.021,-0.048,0.0,112.0,108.0,105.0,13.4,1505.3,326.3,-0.7,1.8,2470.344,13.33,0.052,203.6
2020-07-30T06:58:03,42.805,6.029,-0.024,-0.026,-0.004,112.0,110.0,107.0,13.4,1505.3,325.1,-0.7,1.8,2470.396,13.33,0.035,222.7
2020-07-30T07:04:03,42.805,6.029,0.004,-0.028,-0.012,109.0,109.0,106.0,13.4,1505.3,323.9,-0.7,1.8,2470.426,13.31,0.028,171.9
2020-07-30T07:07:03,42.805,6.029,-0.03,-0.017,-0.009,110.0,109.0,107.0,13.4,1505.3,326.9,-0.7,1.8,2470.416,13.31,0.034,240.5
2020-07-30T07:10:03,42.805,6.029,-0.009,-0.02,0.018,109.0,110.0,105.0,13.3,1505.3,324.4,-0.7,1.8,2470.42,13.32,0.021,204.2
2020-07-30T07:13:03,42.805,6.029,-0.019,-0.05,-0.008,109.0,110.0,105.0,13.3,1505.3,326.0,-0.7,1.8,2470.39,13.32,0.053,200.8
2020-07-30T07:16:03,42.805,6.029,-0.014,-0.018,-0.017,109.0,109.0,106.0,13.4,1505.3,327.8,-0.7,1.8,2470.348,13.33,0.022,217.9
2020-07-30T07:19:03,42.805,6.029,-0.003,-0.041,-0.024,109.0,111.0,107.0,13.4,1505.3,328.4,-0.7,1.8,2470.426,13.33,0.041,184.2
2020-07-30T07:22:03,42.805,6.029,-0.041,-0.039,-0.024,110.0,110.0,106.0,13.3,1505.3,327.3,-0.7,1.9,2470.377,13.33,0.056,226.4
2020-07-30T07:25:03,42.805,6.029,-0.007,-0.014,0.003,109.0,109.0,107.0,13.4,1505.3,328.6,-0.7,1.8,2470.378,13.33,0.015,206.6
2020-07-30T07:28:03,42.805,6.029,-0.042,-0.057,-0.019,110.0,108.0,105.0,13.4,1505.3,325.5,-0.7,1.9,2470.368,13.33,0.07,216.4
2020-07-30T07:31:03,42.805,6.029,-0.027,-0.037,-0.027,110.0,110.0,105.0,13.4,1505.3,322.3,-0.7,1.8,2470.371,13.33,0.045,216.1
2020-07-30T07:34:03,42.805,6.029,-0.011,-0.037,0.005,110.0,109.0,104.0,13.4,1505.3,325.0,-0.7,1.9,2470.331,13.33,0.038,196.6
2020-07-30T07:37:02,42.805,6.029,-0.016,-0.04,-0.07,109.0,109.0,106.0,13.4,1505.3,322.5,-0.7,1.8,2470.41,13.33,0.043,201.8
2020-07-30T07:40:03,42.805,6.029,-0.035,-0.031,-0.02,110.0,109.0,105.0,13.4,1505.3,326.3,-0.7,1.8,2470.352,13.33,0.046,228.5
2020-07-30T07:43:03,42.805,6.029,-0.027,-0.025,0.005,108.0,110.0,106.0,13.4,1505.3,326.4,-0.7,1.8,2470.336,13.33,0.036,227.2
2020-07-30T07:46:03,42.805,6.029,-0.016,-0.043,-0.025,109.0,109.0,107.0,13.3,1505.3,326.9,-0.7,1.8,2470.376,13.33,0.045,200.4
2020-07-30T07:49:03,42.805,6.029,-0.019,-0.008,-0.027,109.0,108.0,104.0,13.4,1505.3,328.2,-0.7,1.8,2470.34,13.33,0.02,247.2
2020-07-30T07:52:03,42.805,6.029,-0.024,-0.026,-0.01,109.0,109.0,105.0,13.4,1505.3,325.2,-0.7,1.8,2470.361,13.33,0.035,222.7
2020-07-30T07:55:03,42.805,6.029,-0.036,-0.045,-0.026,109.0,109.0,104.0,13.4,1505.3,326.8,-0.7,1.8,2470.358,13.33,0.057,218.7
2020-07-30T07:58:03,42.805,6.029,-0.019,-0.037,-0.003,108.0,109.0,105.0,13.4,1505.3,323.5,-0.7,1.8,2470.414,13.33,0.041,207.2
2020-07-30T08:04:03,42.805,6.029,-0.024,-0.024,0.026,110.0,109.0,104.0,13.4,1505.3,324.2,-0.7,1.8,2470.368,13.31,0.033,225.0
2020-07-30T08:07:03,42.805,6.029,-0.029,-0.033,-0.019,109.0,109.0,105.0,13.4,1505.3,323.8,-0.7,1.8,2470.373,13.31,0.043,221.3
2020-07-30T08:10:03,42.805,6.029,-0.025,-0.036,-0.025,109.0,108.0,106.0,13.3,1505.3,326.3,-0.7,1.8,2470.371,13.32,0.043,214.8
2020-07-30T08:13:03,42.805,6.029,-0.014,-0.027,0.015,109.0,107.0,105.0,13.4,1505.3,323.0,-0.7,1.8,2470.347,13.32,0.03,207.4
2020-07-30T08:16:03,42.805,6.029,-0.017,-0.027,-0.041,111.0,109.0,104.0,13.4,1505.3,325.5,-0.7,1.9,2470.375,13.32,0.031,212.2
2020-07-30T08:19:03,42.805,6.029,-0.032,-0.024,-0.013,109.0,109.0,106.0,13.4,1505.3,327.8,-0.7,1.8,2470.323,13.32,0.04,233.1
2020-07-30T08:22:03,42.805,6.029,-0.037,-0.028,0.002,108.0,109.0,105.0,13.3,1505.3,324.4,-0.7,1.8,2470.333,13.33,0.046,232.9
2020-07-30T08:25:03,42.805,6.029,-0.046,-0.027,-0.037,109.0,108.0,105.0,13.4,1505.3,327.6,-0.7,1.8,2470.315,13.33,0.053,239.6
2020-07-30T08:28:03,42.805,6.029,-0.028,-0.018,0.0,109.0,109.0,104.0,13.4,1505.3,326.3,-0.7,1.8,2470.332,13.33,0.033,237.3
2020-07-30T08:31:03,42.805,6.029,-0.02,-0.038,-0.007,109.0,109.0,105.0,13.4,1505.3,327.0,-0.7,1.8,2470.339,13.33,0.042,207.8
2020-07-30T08:34:03,42.805,6.029,-0.013,-0.028,0.004,109.0,108.0,105.0,13.4,1505.3,322.8,-0.7,1.8,2470.343,13.33,0.03,204.9
2020-07-30T08:37:03,42.805,6.029,-0.056,-0.031,-0.006,108.0,108.0,104.0,13.3,1505.3,326.4,-0.7,1.9,2470.356,13.32,0.064,241.0
2020-07-30T08:40:03,42.805,6.029,-0.033,-0.027,-0.028,109.0,109.0,103.0,13.3,1505.3,326.2,-0.7,1.8,2470.317,13.33,0.042,230.7
2020-07-30T08:43:03,42.805,6.029,-0.037,-0.028,-0.024,109.0,109.0,106.0,13.3,1505.3,327.4,-0.7,1.8,2470.336,13.33,0.046,232.9
2020-07-30T08:46:03,42.805,6.029,-0.006,-0.021,-0.004,108.0,109.0,105.0,13.4,1505.3,322.9,-0.7,1.8,2470.297,13.33,0.021,195.9
2020-07-30T08:49:03,42.805,6.029,-0.019,-0.021,0.032,109.0,109.0,105.0,13.4,1505.3,326.5,-0.7,1.8,2470.351,13.33,0.028,222.1
2020-07-30T08:52:03,42.805,6.029,-0.036,-0.036,-0.003,110.0,110.0,104.0,13.3,1505.3,324.7,-0.7,1.8,2470.323,13.33,0.05,225.0
2020-07-30T08:55:03,42.805,6.029,-0.037,-0.015,-0.025,108.0,108.0,105.0,13.4,1505.3,327.7,-0.7,1.8,2470.331,13.33,0.039,247.9
2020-07-30T08:58:03,42.805,6.029,-0.03,-0.026,0.008,110.0,109.0,105.0,13.3,1505.3,325.5,-0.7,1.8,2470.331,13.33,0.039,229.1
2020-07-30T09:04:03,42.805,6.029,-0.06,-0.028,-0.006,109.0,109.0,104.0,13.4,1505.2,327.9,-0.7,1.8,2470.395,13.3,0.066,245.0
2020-07-30T09:07:03,42.805,6.029,-0.069,-0.009,0.027,109.0,107.0,103.0,13.4,1505.3,326.3,-0.7,1.8,2470.35,13.31,0.069,262.6
2020-07-30T09:10:03,42.805,6.029,-0.022,-0.043,-0.018,108.0,108.0,104.0,13.3,1505.3,326.6,-0.7,1.8,2470.368,13.32,0.048,207.1
2020-07-30T09:13:03,42.805,6.029,-0.03,-0.03,0.007,109.0,107.0,105.0,13.4,1505.3,323.6,-0.7,1.8,2470.335,13.32,0.042,225.0
2020-07-30T09:16:03,42.805,6.029,-0.059,-0.046,-0.044,110.0,107.0,105.0,13.3,1505.3,325.3,-0.7,1.8,2470.323,13.32,0.074,232.1
2020-07-30T09:19:03,42.805,6.029,-0.045,-0.039,0.001,108.0,108.0,105.0,13.4,1505.3,324.4,-0.7,1.8,2470.354,13.32,0.059,229.1
2020-07-30T09:22:03,42.805,6.029,-0.032,-0.002,-0.018,109.0,108.0,104.0,13.4,1505.3,324.0,-0.7,1.9,2470.323,13.32,0.032,266.4
2020-07-30T09:25:03,42.805,6.029,-0.05,-0.012,-0.024,109.0,109.0,104.0,13.4,1505.3,324.6,-0.7,1.8,2470.331,13.32,0.051,256.5
2020-07-30T09:28:03,42.805,6.029,-0.042,0.0,0.018,108.0,109.0,104.0,13.3,1505.3,326.1,-0.7,1.8,2470.329,13.32,0.042,270.0
2020-07-30T09:31:03,42.805,6.029,-0.045,-0.016,-0.008,108.0,108.0,105.0,13.4,1505.3,326.7,-0.7,1.8,2470.311,13.32,0.047,250.4
2020-07-30T09:34:03,42.805,6.029,-0.045,-0.018,-0.019,109.0,109.0,105.0,13.3,1505.3,324.7,-0.7,1.8,2470.321,13.32,0.048,248.2
2020-07-30T09:37:03,42.805,6.029,-0.048,-0.027,-0.005,109.0,109.0,105.0,13.4,1505.3,328.4,-0.7,1.8,2470.3,13.32,0.055,240.6
2020-07-30T09:40:03,42.805,6.029,-0.046,-0.025,-0.012,109.0,109.0,105.0,13.3,1505.3,322.9,-0.7,1.9,2470.362,13.32,0.052,241.5
2020-07-30T09:43:03,42.805,6.029,-0.05,-0.02,-0.001,108.0,109.0,104.0,13.4,1505.3,326.7,-0.7,1.8,2470.37,13.32,0.053,248.2
2020-07-30T09:46:03,42.805,6.029,-0.038,-0.014,-0.015,109.0,109.0,104.0,13.4,1505.3,324.0,-0.7,1.8,2470.334,13.32,0.04,249.8
2020-07-30T09:49:03,42.805,6.029,-0.049,-0.007,0.007,110.0,109.0,104.0,13.3,1505.3,327.1,-0.7,1.9,2470.356,13.32,0.049,261.9
2020-07-30T09:52:03,42.805,6.029,-0.034,-0.011,-0.026,109.0,107.0,104.0,13.3,1505.3,326.3,-0.7,1.8,2470.334,13.32,0.035,252.1
2020-07-30T09:55:03,42.805,6.029,-0.062,-0.04,0.005,108.0,108.0,104.0,13.4,1505.3,326.9,-0.7,1.9,2470.313,13.32,0.073,237.2
2020-07-30T09:58:03,42.805,6.029,-0.056,-0.009,-0.026,109.0,108.0,104.0,13.4,1505.3,325.2,-0.7,1.8,2470.276,13.32,0.056,260.9